Time,TemperatureF,DewpointF,PressureIn,WindDirection,WindDirectionDegrees,WindSpeedMPH,WindSpeedGustMPH,Humidity,HourlyPrecipIn,Conditions,Clouds,dailyrainin,SoftwareType,DateUTC
2013-02-14 00:01:00,39.4,33.8,29.89,SSW,203,3.0,8.0,80,0.00,,,0.22,meteohub,2013-02-14 06:01:00,
2013-02-14 00:06:00,39.7,33.4,29.88,SW,225,6.0,9.0,78,0.00,,,0.00,meteohub,2013-02-14 06:06:00,
2013-02-14 00:11:00,39.9,33.3,29.88,SW,225,7.0,9.0,77,0.00,,,0.00,meteohub,2013-02-14 06:11:00,
2013-02-14 00:16:00,40.1,33.4,29.88,WSW,248,4.0,9.0,77,0.00,,,0.00,meteohub,2013-02-14 06:16:00,
2013-02-14 00:21:00,40.1,33.4,29.88,ESE,113,4.0,7.0,77,0.00,,,0.00,meteohub,2013-02-14 06:21:00,
2013-02-14 00:26:00,40.5,33.1,29.89,SW,225,6.0,7.0,75,0.00,,,0.00,meteohub,2013-02-14 06:26:00,
2013-02-14 00:31:00,40.3,33.1,29.89,SW,225,5.0,6.0,75,0.00,,,0.00,meteohub,2013-02-14 06:31:00,
2013-02-14 00:36:00,40.5,32.9,29.89,NNE,23,8.0,9.0,74,0.00,,,0.00,meteohub,2013-02-14 06:36:00,
2013-02-14 00:41:00,40.8,32.9,29.89,SW,225,4.0,9.0,73,0.00,,,0.00,meteohub,2013-02-14 06:41:00,
2013-02-14 00:46:00,40.6,32.7,29.90,SW,225,7.0,9.0,73,0.00,,,0.00,meteohub,2013-02-14 06:46:00,
2013-02-14 00:51:00,40.6,32.4,29.90,SW,225,7.0,8.0,72,0.00,,,0.00,meteohub,2013-02-14 06:51:00,
2013-02-14 00:56:00,40.8,32.2,29.90,SW,225,4.0,7.0,71,0.00,,,0.00,meteohub,2013-02-14 06:56:00,
2013-02-14 01:01:00,41.0,32.0,29.90,SW,225,9.0,9.0,70,0.00,,,0.00,meteohub,2013-02-14 07:01:00,
2013-02-14 01:06:00,41.2,32.2,29.89,West,270,4.0,9.0,70,0.00,,,0.00,meteohub,2013-02-14 07:06:00,
2013-02-14 01:11:00,41.0,31.6,29.89,SW,225,9.0,9.0,69,0.00,,,0.00,meteohub,2013-02-14 07:11:00,
2013-02-14 01:16:00,41.2,31.5,29.89,SW,225,5.0,9.0,68,0.00,,,0.00,meteohub,2013-02-14 07:16:00,
2013-02-14 01:21:00,41.2,31.8,29.89,SW,225,8.0,9.0,69,0.00,,,0.00,meteohub,2013-02-14 07:21:00,
2013-02-14 01:26:00,41.2,31.5,29.89,SW,225,6.0,9.0,68,0.00,,,0.00,meteohub,2013-02-14 07:26:00,
2013-02-14 01:31:00,41.2,31.5,29.89,West,270,6.0,8.0,68,0.00,,,0.00,meteohub,2013-02-14 07:31:00,
2013-02-14 01:36:00,41.2,31.5,29.89,SW,225,5.0,8.0,68,0.00,,,0.00,meteohub,2013-02-14 07:36:00,
2013-02-14 01:41:00,41.0,31.3,29.89,SSE,158,5.0,7.0,68,0.00,,,0.00,meteohub,2013-02-14 07:41:00,
2013-02-14 01:46:00,40.8,30.7,29.90,WSW,248,6.0,8.0,67,0.00,,,0.00,meteohub,2013-02-14 07:46:00,
2013-02-14 01:51:00,40.6,30.9,29.90,WSW,248,7.0,8.0,68,0.00,,,0.00,meteohub,2013-02-14 07:51:00,
2013-02-14 01:56:00,40.6,30.6,29.90,South,180,6.0,9.0,67,0.00,,,0.00,meteohub,2013-02-14 07:56:00,
2013-02-14 02:01:00,40.6,30.6,29.90,WSW,248,8.0,9.0,67,0.00,,,0.00,meteohub,2013-02-14 08:01:00,
2013-02-14 02:05:00,40.6,30.2,29.89,West,270,5.0,8.0,66,0.00,,,0.00,meteohub,2013-02-14 08:05:00,
2013-02-14 02:11:00,40.5,30.4,29.89,SSW,203,5.0,8.0,67,0.00,,,0.00,meteohub,2013-02-14 08:11:00,
2013-02-14 02:16:00,40.5,30.0,29.89,West,270,4.0,8.0,66,0.00,,,0.00,meteohub,2013-02-14 08:16:00,
2013-02-14 02:21:00,40.1,29.7,29.89,SSW,203,5.0,6.0,66,0.00,,,0.00,meteohub,2013-02-14 08:21:00,
2013-02-14 02:26:00,39.9,29.5,29.90,West,270,3.0,6.0,66,0.00,,,0.00,meteohub,2013-02-14 08:26:00,
2013-02-14 02:31:00,39.9,29.5,29.90,WSW,248,9.0,9.0,66,0.00,,,0.00,meteohub,2013-02-14 08:31:00,
2013-02-14 02:36:00,39.9,29.5,29.90,West,270,7.0,9.0,66,0.00,,,0.00,meteohub,2013-02-14 08:36:00,
2013-02-14 02:41:00,39.9,29.1,29.90,WSW,248,7.0,9.0,65,0.00,,,0.00,meteohub,2013-02-14 08:41:00,
2013-02-14 02:46:00,39.9,29.1,29.89,SW,225,4.0,9.0,65,0.00,,,0.00,meteohub,2013-02-14 08:46:00,
2013-02-14 02:51:00,39.9,28.8,29.89,SW,225,5.0,7.0,64,0.00,,,0.00,meteohub,2013-02-14 08:51:00,
2013-02-14 02:56:00,39.9,28.8,29.89,SW,225,5.0,7.0,64,0.00,,,0.00,meteohub,2013-02-14 08:56:00,
2013-02-14 03:01:00,39.9,28.8,29.89,NW,315,3.0,5.0,64,0.00,,,0.00,meteohub,2013-02-14 09:01:00,
2013-02-14 03:06:00,39.9,28.8,29.90,SW,225,9.0,9.0,64,0.00,,,0.00,meteohub,2013-02-14 09:06:00,
2013-02-14 03:11:00,39.7,28.6,29.90,WSW,248,9.0,9.0,64,0.00,,,0.00,meteohub,2013-02-14 09:11:00,
2013-02-14 03:16:00,39.7,28.6,29.90,South,180,3.0,9.0,64,0.00,,,0.00,meteohub,2013-02-14 09:16:00,
2013-02-14 03:21:00,39.7,28.6,29.90,WNW,293,5.0,9.0,64,0.00,,,0.00,meteohub,2013-02-14 09:21:00,
2013-02-14 03:26:00,39.4,28.6,29.88,West,270,5.0,9.0,65,0.00,,,0.00,meteohub,2013-02-14 09:26:00,
2013-02-14 03:31:00,39.2,28.4,29.88,East,90,5.0,9.0,65,0.00,,,0.00,meteohub,2013-02-14 09:31:00,
2013-02-14 03:36:00,39.0,28.2,29.89,SW,225,4.0,9.0,65,0.00,,,0.00,meteohub,2013-02-14 09:36:00,
2013-02-14 03:41:00,38.8,28.0,29.89,WSW,248,4.0,7.0,65,0.00,,,0.00,meteohub,2013-02-14 09:41:00,
2013-02-14 03:46:00,38.7,27.9,29.89,WSW,248,1.0,7.0,65,0.00,,,0.00,meteohub,2013-02-14 09:46:00,
2013-02-14 03:51:00,38.5,27.7,29.89,WSW,248,3.0,7.0,65,0.00,,,0.00,meteohub,2013-02-14 09:51:00,
2013-02-14 03:56:00,38.5,28.0,29.89,WSW,248,3.0,5.0,66,0.00,,,0.00,meteohub,2013-02-14 09:56:00,
2013-02-14 04:01:00,38.1,27.9,29.89,SW,225,4.0,5.0,66,0.00,,,0.00,meteohub,2013-02-14 10:01:00,
2013-02-14 04:06:00,38.3,27.9,29.89,SSE,158,3.0,5.0,66,0.00,,,0.00,meteohub,2013-02-14 10:06:00,
2013-02-14 04:11:00,37.9,27.7,29.89,WSW,248,3.0,4.0,66,0.00,,,0.00,meteohub,2013-02-14 10:11:00,
2013-02-14 04:16:00,37.8,27.5,29.89,NE,45,4.0,4.0,66,0.00,,,0.00,meteohub,2013-02-14 10:16:00,
2013-02-14 04:21:00,37.8,27.5,29.89,SSW,203,4.0,4.0,66,0.00,,,0.00,meteohub,2013-02-14 10:21:00,
2013-02-14 04:26:00,37.8,27.5,29.89,WSW,248,2.0,4.0,66,0.00,,,0.00,meteohub,2013-02-14 10:26:00,
2013-02-14 04:31:00,37.8,27.5,29.89,WSW,248,0.0,4.0,66,0.00,,,0.00,meteohub,2013-02-14 10:31:00,
2013-02-14 04:36:00,37.8,27.5,29.89,SSE,158,0.0,4.0,66,0.00,,,0.00,meteohub,2013-02-14 10:36:00,
2013-02-14 04:41:00,37.8,27.5,29.89,SW,225,0.0,3.0,66,0.00,,,0.00,meteohub,2013-02-14 10:41:00,
2013-02-14 04:46:00,37.8,27.5,29.89,SW,225,0.0,3.0,66,0.00,,,0.00,meteohub,2013-02-14 10:46:00,
2013-02-14 04:51:00,37.6,27.3,29.89,ESE,113,0.0,2.0,66,0.00,,,0.00,meteohub,2013-02-14 10:51:00,
2013-02-14 04:56:00,37.2,27.0,29.89,ESE,113,0.0,0.0,66,0.00,,,0.00,meteohub,2013-02-14 10:56:00,
2013-02-14 05:01:00,36.9,26.6,29.90,SE,135,0.0,0.0,66,0.00,,,0.00,meteohub,2013-02-14 11:01:00,
2013-02-14 05:06:00,36.9,26.6,29.89,ESE,113,0.0,0.0,66,0.00,,,0.00,meteohub,2013-02-14 11:06:00,
2013-02-14 05:11:00,36.5,26.6,29.89,ESE,113,2.0,0.0,67,0.00,,,0.00,meteohub,2013-02-14 11:11:00,
2013-02-14 05:16:00,36.3,26.4,29.89,ESE,113,2.0,2.0,67,0.00,,,0.00,meteohub,2013-02-14 11:16:00,
2013-02-14 05:21:00,36.1,26.2,29.89,ESE,113,2.0,2.0,67,0.00,,,0.00,meteohub,2013-02-14 11:21:00,
2013-02-14 05:26:00,36.1,26.2,29.90,ESE,113,0.0,2.0,67,0.00,,,0.00,meteohub,2013-02-14 11:26:00,
2013-02-14 05:31:00,36.1,26.6,29.90,SE,135,0.0,2.0,68,0.00,,,0.00,meteohub,2013-02-14 11:31:00,
2013-02-14 05:36:00,36.1,26.6,29.90,SE,135,0.0,2.0,68,0.00,,,0.00,meteohub,2013-02-14 11:36:00,
2013-02-14 05:41:00,35.8,26.2,29.90,SW,225,0.0,0.0,68,0.00,,,0.00,meteohub,2013-02-14 11:41:00,
2013-02-14 05:46:00,35.6,26.1,29.91,South,180,0.0,0.0,68,0.00,,,0.00,meteohub,2013-02-14 11:46:00,
2013-02-14 05:51:00,35.4,25.9,29.91,WSW,248,0.0,0.0,68,0.00,,,0.00,meteohub,2013-02-14 11:51:00,
2013-02-14 05:56:00,34.9,25.7,29.91,SW,225,0.0,0.0,69,0.00,,,0.00,meteohub,2013-02-14 11:56:00,
2013-02-14 06:01:00,34.7,25.5,29.91,SW,225,0.0,0.0,69,0.00,,,0.00,meteohub,2013-02-14 12:01:00,
2013-02-14 06:06:00,34.3,25.2,29.92,SW,225,0.0,0.0,69,0.00,,,0.00,meteohub,2013-02-14 12:06:00,
2013-02-14 06:11:00,34.0,25.2,29.92,SW,225,0.0,0.0,70,0.00,,,0.00,meteohub,2013-02-14 12:11:00,
2013-02-14 06:16:00,33.4,24.8,29.93,SW,225,0.0,0.0,70,0.00,,,0.00,meteohub,2013-02-14 12:16:00,
2013-02-14 06:21:00,33.1,24.6,29.93,SW,225,0.0,0.0,71,0.00,,,0.00,meteohub,2013-02-14 12:21:00,
2013-02-14 06:26:00,33.1,24.6,29.93,SSE,158,1.0,0.0,71,0.00,,,0.00,meteohub,2013-02-14 12:26:00,
2013-02-14 06:31:00,32.9,24.6,29.93,SE,135,0.0,2.0,71,0.00,,,0.00,meteohub,2013-02-14 12:31:00,
2013-02-14 06:36:00,32.9,24.8,29.93,SE,135,0.0,2.0,72,0.00,,,0.00,meteohub,2013-02-14 12:36:00,
2013-02-14 06:41:00,33.3,25.2,29.93,SW,225,1.0,1.0,72,0.00,,,0.00,meteohub,2013-02-14 12:41:00,
2013-02-14 06:46:00,33.3,25.5,29.94,SSE,158,0.0,1.0,73,0.00,,,0.00,meteohub,2013-02-14 12:46:00,
2013-02-14 06:51:00,33.4,25.7,29.94,South,180,2.0,2.0,73,0.00,,,0.00,meteohub,2013-02-14 12:51:00,
2013-02-14 06:56:00,33.4,25.7,29.94,WSW,248,0.0,2.0,73,0.00,,,0.00,meteohub,2013-02-14 12:56:00,
2013-02-14 07:01:00,33.3,25.5,29.94,SW,225,0.0,2.0,73,0.00,,,0.00,meteohub,2013-02-14 13:01:00,
2013-02-14 07:06:00,32.9,25.2,29.96,SW,225,0.0,2.0,73,0.00,,,0.00,meteohub,2013-02-14 13:06:00,
2013-02-14 07:11:00,32.5,24.4,29.96,West,270,0.0,0.0,72,0.00,,,0.00,meteohub,2013-02-14 13:11:00,
2013-02-14 07:16:00,32.2,24.4,29.96,NE,45,0.0,0.0,73,0.00,,,0.00,meteohub,2013-02-14 13:16:00,
2013-02-14 07:22:00,31.8,24.4,29.96,ENE,68,0.0,0.0,74,0.00,,,0.00,meteohub,2013-02-14 13:22:00,
2013-02-14 07:26:00,31.8,24.4,30.01,East,90,2.0,0.0,74,0.00,,,0.00,meteohub,2013-02-14 13:26:00,
2013-02-14 07:31:00,31.8,24.4,30.01,SE,135,0.0,2.0,74,0.00,,,0.00,meteohub,2013-02-14 13:31:00,
2013-02-14 07:36:00,32.0,25.0,30.01,SW,225,0.0,2.0,75,0.00,,,0.00,meteohub,2013-02-14 13:36:00,
2013-02-14 07:41:00,32.0,25.0,30.01,SE,135,0.0,2.0,75,0.00,,,0.00,meteohub,2013-02-14 13:41:00,
2013-02-14 07:46:00,32.5,25.5,30.03,South,180,0.0,0.0,75,0.00,,,0.00,meteohub,2013-02-14 13:46:00,
2013-02-14 07:51:00,32.5,25.9,30.03,SW,225,0.0,0.0,76,0.00,,,0.00,meteohub,2013-02-14 13:51:00,
2013-02-14 07:56:00,32.9,26.2,30.03,SW,225,2.0,0.0,76,0.00,,,0.00,meteohub,2013-02-14 13:56:00,
2013-02-14 08:01:00,33.4,26.8,30.02,SW,225,2.0,2.0,76,0.00,,,0.00,meteohub,2013-02-14 14:01:00,
2013-02-14 08:07:00,34.0,27.1,30.00,West,270,2.0,4.0,76,0.00,,,0.00,meteohub,2013-02-14 14:07:00,
2013-02-14 08:11:00,34.7,27.9,30.00,West,270,0.0,4.0,76,0.00,,,0.00,meteohub,2013-02-14 14:11:00,
2013-02-14 08:17:00,35.2,28.4,29.99,West,270,3.0,4.0,76,0.00,,,0.00,meteohub,2013-02-14 14:17:00,
2013-02-14 08:22:00,37.6,30.7,29.99,SW,225,6.0,6.0,76,0.00,,,0.00,meteohub,2013-02-14 14:22:00,
2013-02-14 08:27:00,38.5,31.6,29.98,West,270,4.0,6.0,76,0.00,,,0.00,meteohub,2013-02-14 14:27:00,
2013-02-14 08:32:00,40.1,32.5,29.98,WNW,293,6.0,7.0,74,0.00,,,0.00,meteohub,2013-02-14 14:32:00,
2013-02-14 08:37:00,41.2,32.9,29.97,WSW,248,6.0,8.0,72,0.00,,,0.00,meteohub,2013-02-14 14:37:00,
2013-02-14 08:42:00,41.7,33.1,29.97,WSW,248,9.0,9.0,71,0.00,,,0.00,meteohub,2013-02-14 14:42:00,
2013-02-14 08:47:00,41.9,32.9,29.98,WSW,248,6.0,9.0,70,0.00,,,0.00,meteohub,2013-02-14 14:47:00,
2013-02-14 08:52:00,42.4,33.1,29.98,WSW,248,6.0,9.0,69,0.00,,,0.00,meteohub,2013-02-14 14:52:00,
2013-02-14 08:57:00,42.6,33.1,29.98,NW,315,9.0,12.0,69,0.00,,,0.00,meteohub,2013-02-14 14:57:00,
2013-02-14 09:02:00,43.3,33.4,29.98,East,90,7.0,12.0,68,0.00,,,0.00,meteohub,2013-02-14 15:02:00,
2013-02-14 09:07:00,43.3,33.4,29.96,West,270,4.0,12.0,68,0.00,,,0.00,meteohub,2013-02-14 15:07:00,
2013-02-14 09:12:00,43.3,33.1,29.96,NW,315,4.0,9.0,67,0.00,,,0.00,meteohub,2013-02-14 15:12:00,
2013-02-14 09:17:00,43.7,33.4,29.96,NNW,338,7.0,9.0,67,0.00,,,0.00,meteohub,2013-02-14 15:17:00,
2013-02-14 09:22:00,44.1,33.8,29.96,NW,315,4.0,9.0,67,0.00,,,0.00,meteohub,2013-02-14 15:22:00,
2013-02-14 09:27:00,44.4,34.2,30.00,NW,315,3.0,9.0,67,0.00,,,0.00,meteohub,2013-02-14 15:27:00,
2013-02-14 09:32:00,45.0,34.7,30.00,West,270,12.0,12.0,67,0.00,,,0.00,meteohub,2013-02-14 15:32:00,
2013-02-14 09:37:00,45.5,34.9,30.00,West,270,4.0,8.0,66,0.00,,,0.00,meteohub,2013-02-14 15:37:00,
2013-02-14 09:42:00,45.9,35.1,30.00,WSW,248,2.0,12.0,66,0.00,,,0.00,meteohub,2013-02-14 15:42:00,
2013-02-14 09:47:00,46.6,35.8,30.02,WSW,248,7.0,12.0,66,0.00,,,0.00,meteohub,2013-02-14 15:47:00,
2013-02-14 09:52:00,47.1,36.0,30.02,West,270,2.0,7.0,65,0.00,,,0.00,meteohub,2013-02-14 15:52:00,
2013-02-14 09:57:00,47.3,36.1,30.02,West,270,7.0,7.0,65,0.00,,,0.00,meteohub,2013-02-14 15:57:00,
2013-02-14 10:02:00,46.9,35.4,30.02,NNW,338,3.0,7.0,64,0.00,,,0.00,meteohub,2013-02-14 16:02:00,
2013-02-14 10:07:00,46.9,35.4,30.04,ENE,68,2.0,7.0,64,0.00,,,0.00,meteohub,2013-02-14 16:07:00,
2013-02-14 10:12:00,47.3,35.8,30.03,West,270,5.0,7.0,64,0.00,,,0.00,meteohub,2013-02-14 16:12:00,
2013-02-14 10:17:00,47.1,35.6,30.03,West,270,5.0,6.0,64,0.00,,,0.00,meteohub,2013-02-14 16:17:00,
2013-02-14 10:22:00,47.5,36.0,30.03,SW,225,5.0,6.0,64,0.00,,,0.00,meteohub,2013-02-14 16:22:00,
2013-02-14 10:27:00,47.7,36.1,30.03,NW,315,4.0,6.0,64,0.00,,,0.00,meteohub,2013-02-14 16:27:00,
2013-02-14 10:32:00,47.7,36.1,30.03,North,0,0.0,5.0,64,0.00,,,0.00,meteohub,2013-02-14 16:32:00,
2013-02-14 10:37:00,47.8,36.3,30.03,NE,45,2.0,5.0,64,0.00,,,0.00,meteohub,2013-02-14 16:37:00,
2013-02-14 10:42:00,48.0,36.0,30.02,NNW,338,2.0,4.0,63,0.00,,,0.00,meteohub,2013-02-14 16:42:00,
2013-02-14 10:47:00,48.0,36.5,30.02,SW,225,5.0,5.0,64,0.00,,,0.00,meteohub,2013-02-14 16:47:00,
2013-02-14 10:52:00,48.7,37.0,30.02,NE,45,2.0,5.0,64,0.00,,,0.00,meteohub,2013-02-14 16:52:00,
2013-02-14 10:57:00,48.7,36.7,30.02,NW,315,4.0,5.0,63,0.00,,,0.00,meteohub,2013-02-14 16:57:00,
2013-02-14 11:02:00,49.1,36.7,30.01,NNW,338,2.0,5.0,62,0.00,,,0.00,meteohub,2013-02-14 17:02:00,
2013-02-14 11:07:00,48.9,36.5,30.03,ENE,68,3.0,4.0,62,0.00,,,0.00,meteohub,2013-02-14 17:07:00,
2013-02-14 11:12:00,49.1,36.7,30.03,NNW,338,2.0,4.0,62,0.00,,,0.00,meteohub,2013-02-14 17:12:00,
2013-02-14 11:17:00,49.1,36.3,30.03,NNW,338,0.0,4.0,61,0.00,,,0.00,meteohub,2013-02-14 17:17:00,
2013-02-14 11:22:00,49.1,36.7,30.03,West,270,4.0,4.0,62,0.00,,,0.00,meteohub,2013-02-14 17:22:00,
2013-02-14 11:27:00,48.9,36.1,30.03,NNW,338,0.0,7.0,61,0.00,,,0.00,meteohub,2013-02-14 17:27:00,
2013-02-14 11:32:00,49.3,36.9,30.03,West,270,6.0,7.0,62,0.00,,,0.00,meteohub,2013-02-14 17:32:00,
2013-02-14 11:37:00,49.5,37.0,30.03,North,0,0.0,6.0,62,0.00,,,0.00,meteohub,2013-02-14 17:37:00,
2013-02-14 11:42:00,49.8,37.4,30.03,West,270,2.0,6.0,62,0.00,,,0.00,meteohub,2013-02-14 17:42:00,
2013-02-14 11:47:00,50.2,37.2,30.02,NNE,23,5.0,6.0,61,0.00,,,0.00,meteohub,2013-02-14 17:47:00,
2013-02-14 11:52:00,50.5,37.2,30.02,ENE,68,1.0,5.0,60,0.00,,,0.00,meteohub,2013-02-14 17:52:00,
2013-02-14 11:57:00,50.9,37.9,30.02,WSW,248,5.0,5.0,61,0.00,,,0.00,meteohub,2013-02-14 17:57:00,
2013-02-14 12:02:00,51.4,38.5,30.02,West,270,9.0,9.0,61,0.00,,,0.00,meteohub,2013-02-14 18:02:00,
2013-02-14 12:07:00,51.6,38.7,30.02,North,0,0.0,9.0,61,0.00,,,0.00,meteohub,2013-02-14 18:07:00,
2013-02-14 12:12:00,52.0,38.5,30.02,NNW,338,1.0,9.0,60,0.00,,,0.00,meteohub,2013-02-14 18:12:00,
2013-02-14 12:17:00,52.0,37.2,30.02,WNW,293,3.0,9.0,57,0.00,,,0.00,meteohub,2013-02-14 18:17:00,
2013-02-14 12:22:00,52.0,37.6,30.02,NNW,338,0.0,3.0,58,0.00,,,0.00,meteohub,2013-02-14 18:22:00,
2013-02-14 12:27:00,52.2,37.8,30.01,NW,315,4.0,4.0,58,0.00,,,0.00,meteohub,2013-02-14 18:27:00,
2013-02-14 12:32:00,52.3,37.9,30.01,WSW,248,3.0,5.0,58,0.00,,,0.00,meteohub,2013-02-14 18:32:00,
2013-02-14 12:37:00,52.5,38.1,30.01,West,270,3.0,5.0,58,0.00,,,0.00,meteohub,2013-02-14 18:37:00,
2013-02-14 12:42:00,52.5,38.1,30.01,WSW,248,6.0,6.0,58,0.00,,,0.00,meteohub,2013-02-14 18:42:00,
2013-02-14 12:47:00,52.7,37.9,30.01,North,0,3.0,6.0,57,0.00,,,0.00,meteohub,2013-02-14 18:47:00,
2013-02-14 12:52:00,52.9,38.1,30.01,NNW,338,0.0,6.0,57,0.00,,,0.00,meteohub,2013-02-14 18:52:00,
2013-02-14 12:57:00,53.1,38.3,30.00,WSW,248,4.0,7.0,57,0.00,,,0.00,meteohub,2013-02-14 18:57:00,
2013-02-14 13:02:00,53.2,38.5,30.00,West,270,6.0,8.0,57,0.00,,,0.00,meteohub,2013-02-14 19:02:00,
2013-02-14 13:07:00,53.2,37.9,30.00,NW,315,2.0,8.0,56,0.00,,,0.00,meteohub,2013-02-14 19:07:00,
2013-02-14 13:12:00,53.4,38.1,30.00,West,270,7.0,7.0,56,0.00,,,0.00,meteohub,2013-02-14 19:12:00,
2013-02-14 13:17:00,53.4,38.1,30.00,NW,315,3.0,7.0,56,0.00,,,0.00,meteohub,2013-02-14 19:17:00,
2013-02-14 13:22:00,53.6,38.3,30.00,NE,45,0.0,7.0,56,0.00,,,0.00,meteohub,2013-02-14 19:22:00,
2013-02-14 13:27:00,54.0,38.1,29.99,NW,315,5.0,7.0,55,0.00,,,0.00,meteohub,2013-02-14 19:27:00,
2013-02-14 13:32:00,54.1,38.3,29.99,West,270,6.0,8.0,55,0.00,,,0.00,meteohub,2013-02-14 19:32:00,
2013-02-14 13:37:00,54.1,37.9,29.99,WNW,293,7.0,8.0,54,0.00,,,0.00,meteohub,2013-02-14 19:37:00,
2013-02-14 13:42:00,54.1,38.3,29.99,West,270,5.0,10.0,55,0.00,,,0.00,meteohub,2013-02-14 19:42:00,
2013-02-14 13:47:00,54.0,38.1,29.99,NW,315,5.0,10.0,55,0.00,,,0.00,meteohub,2013-02-14 19:47:00,
2013-02-14 13:52:00,54.1,37.9,29.99,West,270,8.0,10.0,54,0.00,,,0.00,meteohub,2013-02-14 19:52:00,
2013-02-14 13:57:00,54.0,37.8,29.99,West,270,5.0,10.0,54,0.00,,,0.00,meteohub,2013-02-14 19:57:00,
2013-02-14 14:02:00,53.8,37.6,29.99,West,270,7.0,10.0,54,0.00,,,0.00,meteohub,2013-02-14 20:02:00,
2013-02-14 14:07:00,53.8,37.6,29.99,NW,315,8.0,9.0,54,0.00,,,0.00,meteohub,2013-02-14 20:07:00,
2013-02-14 14:12:00,53.6,37.4,29.99,West,270,6.0,8.0,54,0.00,,,0.00,meteohub,2013-02-14 20:12:00,
2013-02-14 14:17:00,54.1,37.9,29.99,West,270,4.0,9.0,54,0.00,,,0.00,meteohub,2013-02-14 20:17:00,
2013-02-14 14:22:00,54.3,37.6,29.99,WNW,293,13.0,13.0,53,0.00,,,0.00,meteohub,2013-02-14 20:22:00,
2013-02-14 14:27:00,54.9,37.6,30.00,NW,315,8.0,13.0,52,0.00,,,0.00,meteohub,2013-02-14 20:27:00,
2013-02-14 14:32:00,54.9,37.6,30.00,West,270,11.0,13.0,52,0.00,,,0.00,meteohub,2013-02-14 20:32:00,
2013-02-14 14:37:00,54.9,37.6,30.00,NW,315,4.0,13.0,52,0.00,,,0.00,meteohub,2013-02-14 20:37:00,
2013-02-14 14:42:00,54.5,37.2,30.00,NW,315,8.0,11.0,52,0.00,,,0.00,meteohub,2013-02-14 20:42:00,
2013-02-14 14:47:00,54.7,37.4,29.99,WSW,248,4.0,11.0,52,0.00,,,0.00,meteohub,2013-02-14 20:47:00,
2013-02-14 14:52:00,54.9,37.6,29.99,West,270,9.0,9.0,52,0.00,,,0.00,meteohub,2013-02-14 20:52:00,
2013-02-14 14:57:00,54.3,36.5,29.99,WNW,293,12.0,12.0,51,0.00,,,0.00,meteohub,2013-02-14 20:57:00,
2013-02-14 15:02:00,54.1,36.3,29.99,West,270,11.0,12.0,51,0.00,,,0.00,meteohub,2013-02-14 21:02:00,
2013-02-14 15:07:00,54.0,35.2,30.00,NW,315,6.0,12.0,49,0.00,,,0.00,meteohub,2013-02-14 21:07:00,
2013-02-14 15:12:00,54.1,36.0,30.00,West,270,11.0,12.0,50,0.00,,,0.00,meteohub,2013-02-14 21:12:00,
2013-02-14 15:17:00,53.8,35.6,30.00,West,270,9.0,14.0,50,0.00,,,0.00,meteohub,2013-02-14 21:17:00,
2013-02-14 15:22:00,53.6,35.4,30.00,WNW,293,8.0,14.0,50,0.00,,,0.00,meteohub,2013-02-14 21:22:00,
2013-02-14 15:27:00,53.6,35.4,30.01,WNW,293,6.0,12.0,50,0.00,,,0.00,meteohub,2013-02-14 21:27:00,
2013-02-14 15:32:00,53.4,35.8,30.01,NW,315,9.0,12.0,51,0.00,,,0.00,meteohub,2013-02-14 21:32:00,
2013-02-14 15:37:00,53.4,35.2,30.01,West,270,12.0,12.0,50,0.00,,,0.00,meteohub,2013-02-14 21:37:00,
2013-02-14 15:42:00,53.1,34.9,30.01,WSW,248,10.0,12.0,50,0.00,,,0.00,meteohub,2013-02-14 21:42:00,
2013-02-14 15:47:00,52.9,35.2,30.01,WSW,248,8.0,12.0,51,0.00,,,0.00,meteohub,2013-02-14 21:47:00,
2013-02-14 15:52:00,53.1,36.0,30.00,NE,45,7.0,12.0,52,0.00,,,0.00,meteohub,2013-02-14 21:52:00,
2013-02-14 15:57:00,52.9,35.8,30.01,NW,315,6.0,12.0,52,0.00,,,0.00,meteohub,2013-02-14 21:57:00,
2013-02-14 16:02:00,53.1,36.0,30.00,WSW,248,6.0,10.0,52,0.00,,,0.00,meteohub,2013-02-14 22:02:00,
2013-02-14 16:07:00,53.1,35.4,30.01,NW,315,6.0,12.0,51,0.00,,,0.00,meteohub,2013-02-14 22:07:00,
2013-02-14 16:12:00,53.1,36.0,30.01,SSW,203,7.0,12.0,52,0.00,,,0.00,meteohub,2013-02-14 22:12:00,
2013-02-14 16:17:00,53.4,36.3,30.01,WSW,248,8.0,12.0,52,0.00,,,0.00,meteohub,2013-02-14 22:17:00,
2013-02-14 16:22:00,53.1,36.0,30.01,ENE,68,10.0,10.0,52,0.00,,,0.00,meteohub,2013-02-14 22:22:00,
2013-02-14 16:27:00,52.9,35.8,30.02,West,270,7.0,10.0,52,0.00,,,0.00,meteohub,2013-02-14 22:27:00,
2013-02-14 16:32:00,52.7,35.1,30.02,SW,225,8.0,10.0,51,0.00,,,0.00,meteohub,2013-02-14 22:32:00,
2013-02-14 16:37:00,52.7,35.1,30.02,WNW,293,7.0,10.0,51,0.00,,,0.00,meteohub,2013-02-14 22:37:00,
2013-02-14 16:42:00,52.2,34.5,30.02,WSW,248,8.0,11.0,51,0.00,,,0.00,meteohub,2013-02-14 22:42:00,
2013-02-14 16:47:00,52.0,34.3,29.99,WSW,248,8.0,11.0,51,0.00,,,0.00,meteohub,2013-02-14 22:47:00,
2013-02-14 16:52:00,51.6,34.2,29.99,ENE,68,4.0,10.0,51,0.00,,,0.00,meteohub,2013-02-14 22:52:00,
2013-02-14 16:57:00,51.3,34.2,29.99,West,270,6.0,13.0,52,0.00,,,0.00,meteohub,2013-02-14 22:57:00,
2013-02-14 17:02:00,51.3,34.2,29.99,West,270,7.0,13.0,52,0.00,,,0.00,meteohub,2013-02-14 23:02:00,
2013-02-14 17:07:00,51.1,34.0,29.99,ESE,113,7.0,9.0,52,0.00,,,0.00,meteohub,2013-02-14 23:07:00,
2013-02-14 17:12:00,50.7,34.2,29.99,NNW,338,1.0,9.0,53,0.00,,,0.00,meteohub,2013-02-14 23:12:00,
2013-02-14 17:17:00,50.7,34.2,29.99,NW,315,4.0,7.0,53,0.00,,,0.00,meteohub,2013-02-14 23:17:00,
2013-02-14 17:22:00,50.4,33.8,29.99,West,270,5.0,8.0,53,0.00,,,0.00,meteohub,2013-02-14 23:22:00,
2013-02-14 17:27:00,50.2,34.2,30.00,NW,315,3.0,8.0,54,0.00,,,0.00,meteohub,2013-02-14 23:27:00,
2013-02-14 17:32:00,50.0,34.0,30.00,WNW,293,5.0,8.0,54,0.00,,,0.00,meteohub,2013-02-14 23:32:00,
2013-02-14 17:37:00,49.8,33.8,30.00,NW,315,5.0,5.0,54,0.00,,,0.00,meteohub,2013-02-14 23:37:00,
2013-02-14 17:42:00,49.5,33.4,30.00,West,270,5.0,5.0,54,0.00,,,0.00,meteohub,2013-02-14 23:42:00,
2013-02-14 17:47:00,49.1,33.6,30.03,NW,315,4.0,6.0,55,0.00,,,0.00,meteohub,2013-02-14 23:47:00,
2013-02-14 17:52:00,49.1,33.6,30.03,West,270,4.0,6.0,55,0.00,,,0.00,meteohub,2013-02-14 23:52:00,
2013-02-14 17:57:00,48.6,33.6,30.03,WNW,293,2.0,6.0,56,0.00,,,0.00,meteohub,2013-02-14 23:57:00,
2013-02-14 18:02:00,48.4,33.4,30.03,West,270,2.0,5.0,56,0.00,,,0.00,meteohub,2013-02-15 00:02:00,
2013-02-14 18:07:00,48.4,33.4,30.06,WSW,248,6.0,6.0,56,0.00,,,0.00,meteohub,2013-02-15 00:07:00,
2013-02-14 18:12:00,48.0,33.4,30.06,West,270,4.0,6.0,57,0.00,,,0.00,meteohub,2013-02-15 00:12:00,
2013-02-14 18:17:00,47.8,33.3,30.06,NW,315,0.0,6.0,57,0.00,,,0.00,meteohub,2013-02-15 00:17:00,
2013-02-14 18:22:00,47.7,33.3,30.06,ENE,68,0.0,6.0,57,0.00,,,0.00,meteohub,2013-02-15 00:22:00,
2013-02-14 18:27:00,47.7,33.3,30.07,NW,315,3.0,4.0,57,0.00,,,0.00,meteohub,2013-02-15 00:27:00,
2013-02-14 18:32:00,47.3,33.3,30.07,NW,315,0.0,3.0,58,0.00,,,0.00,meteohub,2013-02-15 00:32:00,
2013-02-14 18:37:00,47.1,33.1,30.07,NNW,338,2.0,4.0,58,0.00,,,0.00,meteohub,2013-02-15 00:37:00,
2013-02-14 18:42:00,47.1,33.1,30.07,NW,315,2.0,4.0,58,0.00,,,0.00,meteohub,2013-02-15 00:42:00,
2013-02-14 18:47:00,46.8,32.7,30.09,WNW,293,0.0,4.0,58,0.00,,,0.00,meteohub,2013-02-15 00:47:00,
2013-02-14 18:52:00,46.8,32.7,30.09,NNW,338,2.0,3.0,58,0.00,,,0.00,meteohub,2013-02-15 00:52:00,
2013-02-14 18:57:00,46.6,32.5,30.09,NW,315,4.0,4.0,58,0.00,,,0.00,meteohub,2013-02-15 00:57:00,
2013-02-14 19:02:00,46.4,32.4,30.09,NNE,23,2.0,4.0,58,0.00,,,0.00,meteohub,2013-02-15 01:02:00,
2013-02-14 19:07:00,46.2,32.2,30.09,North,0,4.0,4.0,58,0.00,,,0.00,meteohub,2013-02-15 01:07:00,
2013-02-14 19:12:00,45.9,32.4,30.09,West,270,0.0,4.0,59,0.00,,,0.00,meteohub,2013-02-15 01:12:00,
2013-02-14 19:17:00,45.7,32.2,30.09,NNE,23,1.0,4.0,59,0.00,,,0.00,meteohub,2013-02-15 01:17:00,
2013-02-14 19:22:00,45.5,32.0,30.09,NW,315,5.0,5.0,59,0.00,,,0.00,meteohub,2013-02-15 01:22:00,
2013-02-14 19:27:00,45.1,32.0,30.10,NNE,23,2.0,5.0,60,0.00,,,0.00,meteohub,2013-02-15 01:27:00,
2013-02-14 19:32:00,45.0,32.0,30.11,WSW,248,2.0,5.0,60,0.00,,,0.00,meteohub,2013-02-15 01:32:00,
2013-02-14 19:37:00,44.8,32.2,30.11,NNW,338,0.0,5.0,61,0.00,,,0.00,meteohub,2013-02-15 01:37:00,
2013-02-14 19:42:00,44.8,32.2,30.11,West,270,0.0,2.0,61,0.00,,,0.00,meteohub,2013-02-15 01:42:00,
2013-02-14 19:47:00,44.4,31.8,30.11,NNW,338,0.0,2.0,61,0.00,,,0.00,meteohub,2013-02-15 01:47:00,
2013-02-14 19:52:00,44.2,31.6,30.11,West,270,0.0,0.0,61,0.00,,,0.00,meteohub,2013-02-15 01:52:00,
2013-02-14 19:57:00,43.9,31.3,30.11,NNE,23,0.0,2.0,61,0.00,,,0.00,meteohub,2013-02-15 01:57:00,
2013-02-14 20:02:00,43.7,31.5,30.11,South,180,0.0,2.0,62,0.00,,,0.00,meteohub,2013-02-15 02:02:00,
2013-02-14 20:07:00,43.7,31.5,30.11,SE,135,0.0,0.0,62,0.00,,,0.00,meteohub,2013-02-15 02:07:00,
2013-02-14 20:12:00,43.3,31.6,30.11,WSW,248,1.0,3.0,63,0.00,,,0.00,meteohub,2013-02-15 02:12:00,
2013-02-14 20:17:00,43.2,31.5,30.11,West,270,2.0,3.0,63,0.00,,,0.00,meteohub,2013-02-15 02:17:00,
2013-02-14 20:22:00,43.0,31.3,30.12,West,270,2.0,2.0,63,0.00,,,0.00,meteohub,2013-02-15 02:22:00,
2013-02-14 20:27:00,42.8,31.5,30.12,WNW,293,2.0,2.0,64,0.00,,,0.00,meteohub,2013-02-15 02:27:00,
2013-02-14 20:32:00,42.8,31.5,30.12,NW,315,2.0,2.0,64,0.00,,,0.00,meteohub,2013-02-15 02:32:00,
2013-02-14 20:37:00,42.8,31.5,30.12,SW,225,1.0,2.0,64,0.00,,,0.00,meteohub,2013-02-15 02:37:00,
2013-02-14 20:42:00,42.8,31.5,30.12,West,270,0.0,2.0,64,0.00,,,0.00,meteohub,2013-02-15 02:42:00,
2013-02-14 20:47:00,42.8,31.5,30.12,NNW,338,3.0,3.0,64,0.00,,,0.00,meteohub,2013-02-15 02:47:00,
2013-02-14 20:52:00,43.0,31.6,30.12,NNE,23,2.0,3.0,64,0.00,,,0.00,meteohub,2013-02-15 02:52:00,
2013-02-14 20:57:00,42.8,31.5,30.12,NNE,23,0.0,3.0,64,0.00,,,0.00,meteohub,2013-02-15 02:57:00,
2013-02-14 21:02:00,42.8,31.5,30.12,NW,315,3.0,3.0,64,0.00,,,0.00,meteohub,2013-02-15 03:02:00,
2013-02-14 21:07:00,42.8,31.5,30.12,NW,315,0.0,3.0,64,0.00,,,0.00,meteohub,2013-02-15 03:07:00,
2013-02-14 21:12:00,42.8,31.5,30.12,WSW,248,2.0,3.0,64,0.00,,,0.00,meteohub,2013-02-15 03:12:00,
2013-02-14 21:17:00,42.8,31.8,30.12,NW,315,2.0,3.0,65,0.00,,,0.00,meteohub,2013-02-15 03:17:00,
2013-02-14 21:22:00,43.0,32.0,30.12,West,270,3.0,3.0,65,0.00,,,0.00,meteohub,2013-02-15 03:22:00,
2013-02-14 21:27:00,42.8,31.8,30.10,NW,315,3.0,4.0,65,0.00,,,0.00,meteohub,2013-02-15 03:27:00,
2013-02-14 21:32:00,42.8,31.8,30.10,West,270,2.0,4.0,65,0.00,,,0.00,meteohub,2013-02-15 03:32:00,
2013-02-14 21:37:00,42.8,31.8,30.10,NW,315,2.0,4.0,65,0.00,,,0.00,meteohub,2013-02-15 03:37:00,
2013-02-14 21:42:00,42.8,32.2,30.10,WSW,248,3.0,4.0,66,0.00,,,0.00,meteohub,2013-02-15 03:42:00,
2013-02-14 21:47:00,43.0,32.4,30.09,West,270,5.0,5.0,66,0.00,,,0.00,meteohub,2013-02-15 03:47:00,
2013-02-14 21:52:00,43.0,32.4,30.09,West,270,5.0,6.0,66,0.00,,,0.00,meteohub,2013-02-15 03:52:00,
2013-02-14 21:57:00,43.0,32.4,30.09,WSW,248,6.0,6.0,66,0.00,,,0.00,meteohub,2013-02-15 03:57:00,
2013-02-14 22:02:00,43.3,32.7,30.09,WSW,248,6.0,8.0,66,0.00,,,0.00,meteohub,2013-02-15 04:02:00,
2013-02-14 22:07:00,43.2,32.5,30.10,WSW,248,4.0,8.0,66,0.00,,,0.00,meteohub,2013-02-15 04:07:00,
2013-02-14 22:12:00,43.3,32.7,30.10,West,270,4.0,8.0,66,0.00,,,0.00,meteohub,2013-02-15 04:12:00,
2013-02-14 22:17:00,43.5,32.5,30.10,West,270,4.0,8.0,65,0.00,,,0.00,meteohub,2013-02-15 04:17:00,
2013-02-14 22:22:00,43.5,32.5,30.10,WSW,248,4.0,8.0,65,0.00,,,0.00,meteohub,2013-02-15 04:22:00,
2013-02-14 22:27:00,43.5,32.5,30.11,West,270,5.0,8.0,65,0.00,,,0.00,meteohub,2013-02-15 04:27:00,
2013-02-14 22:32:00,43.5,32.5,30.11,West,270,4.0,5.0,65,0.00,,,0.00,meteohub,2013-02-15 04:32:00,
2013-02-14 22:37:00,43.3,32.4,30.11,NW,315,4.0,5.0,65,0.00,,,0.00,meteohub,2013-02-15 04:37:00,
2013-02-14 22:42:00,43.3,32.4,30.11,NW,315,4.0,5.0,65,0.00,,,0.00,meteohub,2013-02-15 04:42:00,
2013-02-14 22:47:00,43.3,32.4,30.11,West,270,4.0,5.0,65,0.00,,,0.00,meteohub,2013-02-15 04:47:00,
2013-02-14 22:52:00,43.2,32.2,30.11,WNW,293,3.0,5.0,65,0.00,,,0.00,meteohub,2013-02-15 04:52:00,
2013-02-14 22:57:00,43.2,32.2,30.11,WNW,293,3.0,5.0,65,0.00,,,0.00,meteohub,2013-02-15 04:57:00,
2013-02-14 23:00:00,43.3,32.4,30.11,NW,315,3.0,5.0,65,0.00,,,0.00,meteohub,2013-02-15 05:00:00,
2013-02-14 23:05:00,43.3,32.4,30.11,WNW,293,0.0,5.0,65,0.00,,,0.00,meteohub,2013-02-15 05:05:00,
2013-02-14 23:10:00,43.3,32.4,30.11,NW,315,3.0,5.0,65,0.00,,,0.00,meteohub,2013-02-15 05:10:00,
2013-02-14 23:15:00,43.0,32.0,30.11,West,270,3.0,4.0,65,0.00,,,0.00,meteohub,2013-02-15 05:15:00,
2013-02-14 23:20:00,42.8,31.8,30.11,NNW,338,3.0,4.0,65,0.00,,,0.00,meteohub,2013-02-15 05:20:00,
2013-02-14 23:25:00,42.8,31.8,30.12,NW,315,5.0,5.0,65,0.00,,,0.00,meteohub,2013-02-15 05:25:00,
2013-02-14 23:30:00,42.8,31.8,30.12,WNW,293,7.0,7.0,65,0.00,,,0.00,meteohub,2013-02-15 05:30:00,
2013-02-14 23:35:00,42.8,31.8,30.12,NW,315,4.0,7.0,65,0.00,,,0.00,meteohub,2013-02-15 05:35:00,
2013-02-14 23:40:00,42.8,31.8,30.12,NW,315,4.0,8.0,65,0.00,,,0.00,meteohub,2013-02-15 05:40:00,
2013-02-14 23:45:00,42.8,31.8,30.12,West,270,5.0,8.0,65,0.00,,,0.00,meteohub,2013-02-15 05:45:00,
2013-02-14 23:50:00,42.6,32.0,30.12,WNW,293,6.0,6.0,66,0.00,,,0.00,meteohub,2013-02-15 05:50:00,
2013-02-14 23:55:00,42.4,31.8,30.12,NW,315,4.0,7.0,66,0.00,,,0.00,meteohub,2013-02-15 05:55:00,